Location: Clatteringshaws Loch
(55.0508°N, 4.2860°W)
Time: 16:32:02
(UTC+01:00)

SR - Visible Passes

Search period start: 17 September 2014 00:00
Search period end: 27 September 2014 00:00
Orbit: 575 x 890 km, 66.7° (Epoch: 09 September)

Date Brightness Start Highest point End Pass type
(mag) Time Alt. Az. Time Alt. Az. Time Alt. Az.
17 Sep ? 01:32:18 58° NNE 01:32:18 58° NNE 01:37:04 10° NE visible
17 Sep ? 03:11:47 26° WNW 03:14:05 35° NNW 03:19:31 10° NE visible
17 Sep ? 04:52:54 10° NW 04:57:55 27° N 05:02:50 10° ENE visible
18 Sep ? 00:45:11 37° NE 00:45:11 37° NE 00:48:44 10° NE visible
18 Sep ? 02:24:40 41° NW 02:25:25 43° NNW 02:31:07 10° NE visible
18 Sep ? 04:04:10 11° WNW 04:09:05 27° N 04:14:03 10° NE visible
18 Sep ? 05:47:37 10° NW 05:52:57 32° NNE 05:58:05 10° E visible
18 Sep ? 23:58:03 23° ENE 23:58:03 23° ENE 00:00:19 10° NE visible
19 Sep ? 01:37:32 54° NNW 01:37:32 54° NNW 01:42:47 10° NE visible
19 Sep ? 03:17:02 19° WNW 03:20:16 30° NNW 03:25:25 10° NE visible
19 Sep ? 04:59:03 10° NW 05:04:10 28° N 05:09:09 10° ENE visible
19 Sep ? 23:10:54 14° ENE 23:10:54 14° ENE 23:11:44 10° NE visible
20 Sep ? 00:50:23 45° NE 00:50:23 45° NE 00:54:29 10° NE visible
20 Sep ? 02:29:52 30° NW 02:31:30 34° NNW 02:36:55 10° NE visible
20 Sep ? 04:10:20 10° NW 04:15:20 27° N 04:20:15 10° ENE visible
20 Sep ? 05:53:29 10° NW 05:59:04 39° NNE 06:04:23 10° E visible
21 Sep ? 00:03:13 30° NE 00:03:13 30° NE 00:06:08 10° NE visible
21 Sep ? 01:42:42 43° NW 01:42:50 43° NNW 01:48:31 10° NE visible
21 Sep ? 03:22:11 13° WNW 03:26:30 27° N 03:31:27 10° NE visible
21 Sep ? 05:05:02 10° NW 05:10:22 32° NNE 05:15:29 10° E visible
21 Sep ? 23:16:00 19° NE 23:16:00 19° NE 23:17:43 10° NE visible
22 Sep ? 00:55:30 48° N 00:55:30 48° N 01:00:11 10° NE visible
22 Sep ? 02:34:59 21° NW 02:37:40 29° NNW 02:42:48 10° NE visible
22 Sep ? 04:16:28 10° NW 04:21:34 28° N 04:26:32 10° ENE visible
22 Sep ? 05:59:15 10° NW 06:05:04 52° NE 06:10:31 10° ESE visible
22 Sep ? 22:28:47 12° ENE 22:28:47 12° ENE 22:29:08 10° NE visible
23 Sep ? 00:08:15 38° NE 00:08:15 38° NE 00:11:52 10° NE visible
23 Sep ? 01:47:44 32° NW 01:48:55 34° NNW 01:54:18 10° NE visible
23 Sep ? 03:27:44 10° NW 03:32:44 27° N 03:37:38 10° ENE visible
23 Sep ? 05:10:53 10° NW 05:16:28 39° NNE 05:21:45 10° E visible
23 Sep ? 23:20:59 27° NE 23:20:59 27° NE 23:23:31 10° NE visible
24 Sep ? 01:00:28 42° NNW 01:00:28 42° NNW 01:05:53 10° NE visible
24 Sep ? 02:39:56 14° NW 02:43:53 27° N 02:48:50 10° NE visible
24 Sep ? 04:22:26 10° NW 04:27:45 32° NNE 04:32:51 10° E visible
24 Sep ? 06:04:59 10° NW 06:10:54 73° NE 06:16:26 10° SE visible
24 Sep ? 22:33:39 18° NE 22:33:39 18° NE 22:35:06 10° NE visible
25 Sep ? 00:13:07 45° N 00:13:07 45° N 00:17:33 10° NE visible
25 Sep ? 01:52:35 22° NW 01:55:04 29° NNW 02:00:11 10° NE visible
25 Sep ? 03:33:51 10° NW 03:38:58 28° NNE 03:43:54 10° ENE visible
25 Sep ? 05:16:38 10° NW 05:22:26 52° NE 05:27:52 10° ESE visible
25 Sep ? 21:46:12 11° NE 21:46:12 11° NE 21:46:31 10° NE visible
25 Sep ? 23:25:40 38° NE 23:25:40 38° NE 23:29:14 10° NE visible
26 Sep ? 01:05:08 31° NW 01:06:17 34° NNW 01:11:39 10° NE visible
26 Sep ? 02:45:07 10° NW 02:50:07 27° N 02:54:59 10° ENE visible
26 Sep ? 04:28:16 10° NW 04:33:50 40° NNE 04:39:07 10° E visible
26 Sep ? 06:10:42 10° NW 06:16:35 77° SW 06:22:02 10° SSE visible
26 Sep ? 22:38:02 30° NE 22:38:02 30° NE 22:40:53 10° NE visible
